{"data":{"norad_id":62703,"epoch":"2026-05-25T04:17:54.366144Z","epoch_age_seconds":70248,"freshness":"FRESH","line1":"1 62703U 25009CY  26145.17910146  .00001039  00000+0  10244-3 0  9997","line2":"2 62703  97.7027 224.2174 0003649 121.5943 238.5634 14.94105617 73932","mean_motion":14.94105617,"eccentricity":0.0003649,"inclination_deg":97.7027,"raan_deg":224.2174,"arg_perigee_deg":121.5943,"mean_anomaly_deg":238.5634,"bstar":0.00010244,"rev_number":7393,"period_min":96.378728760244,"perigee_km":582.60931327739,"apogee_km":587.6911202882,"semimajor_km":6963.2872167828,"source":"CELESTRAK","updated_at":"2026-05-25T13:38:03.204465Z"}}